Location: Mountain Grove
(34.0887°N, 86.6172°W)
Time: 00:36:21
(UTC+00:00)

OAO 2 Rocket - Pass Details

Date: 14 July 2020
Orbit: 676 x 746 km, 35.0° (Epoch: 12 August)

Event Time Altitude Azimuth Distance (km) Brightness Sun altitude
Rises 01:49:34 0° 281° (WNW) 3,123 8.1 -9.8°
Reaches altitude 10° 01:52:00 10° 279° (W) 2,212 7.0 -10.2°
Maximum altitude 01:57:10 67° 198° (SSW) 793 3.5 -11.1°
Enters shadow 02:01:23 16° 118° (ESE) 1,866 4.9 -11.8°
